Overview Statistics Trail Chart Weather Telemetry Raw packets
 

This is the latest recevied weather packets stored in our database for station/object N5ZP. If no packets are shown the sender has not sent any weather packets the latest 10 day(s).

<< 6 7 8 9 10 11 12 >>
Time Temp. Humidity Pressure Rain* Wind** Luminosity Snow
1788559803 37.78° C 39% 1008.4 hPa 0 mm - 267 W/m² -
1788559502 37.78° C 39% 1008.3 hPa 0 mm - 283 W/m² -
1788559198 37.22° C 39% 1008.5 hPa 0 mm - 299 W/m² -
1788558893 37.78° C 40% 1008.5 hPa 0 mm - 312 W/m² -
1788558589 37.22° C 40% 1008.6 hPa 0 mm - 321 W/m² -
1788558284 37.22° C 39% 1008.5 hPa 0 mm - 338 W/m² -
1788557979 37.22° C 39% 1008.6 hPa 0 mm - 355 W/m² -
1788557678 37.22° C 39% 1008.7 hPa 0 mm - 369 W/m² -
1788557375 37.22° C 38% 1008.6 hPa 0 mm - 378 W/m² -
1788557074 37.22° C 39% 1008.6 hPa 0 mm - 395 W/m² -
1788556769 37.22° C 39% 1008.8 hPa 0 mm - 403 W/m² -
1788556464 37.22° C 39% 1008.9 hPa 0 mm - 423 W/m² -
1788556160 37.22° C 40% 1009 hPa 0 mm - 430 W/m² -
1788555859 37.78° C 39% 1008.9 hPa 0 mm - 445 W/m² -
1788555555 37.22° C 40% 1009.1 hPa 0 mm - 455 W/m² -
1788555250 37.22° C 40% 1008.9 hPa 0 mm - 468 W/m² -
1788554947 37.22° C 42% 1009.2 hPa 0 mm - 489 W/m² -
1788554643 36.67° C 42% 1009 hPa 0 mm - 491 W/m² -
1788554339 37.78° C 41% 1009.3 hPa 0 mm - 506 W/m² -
1788554035 37.78° C 39% 1009.4 hPa 0 mm - 525 W/m² -
1788553730 37.78° C 41% 1009.4 hPa 0 mm - 527 W/m² -
1788553426 38.33° C 39% 1009.5 hPa 0 mm - 545 W/m² -
1788553122 37.78° C 39% 1009.7 hPa 0 mm - 551 W/m² -
1788552822 36.67° C 40% 1009.8 hPa 0 mm - 564 W/m² -
1788552517 37.22° C 39% 1009.9 hPa 0 mm - 575 W/m² -

* Rain latest hour (hover to see other rain measurements)
** Current wind speed in m/s (hover to see current wind gust speed)